Theta_e
318 318 318 317 316 316 314 315 316 316 316 315 315 315 315 315 316 316 316 316 316 316 317 318 319 321 314 302 303 310 341 339 321 312 309 307 303 301 298 298 298 296 300 302 303 301 309
318 317 317 315 315 316 314 314 315 316 315 315 315 314 315 315 315 316 315 315 315 315 316 318 321 321 306 296 306 319 319 315 312 309 309 307 306 305 301 299 298 300 301 303 301 301 303
318 316 315 315 315 315 313 313 313 315 315 314 314 314 314 315 315 315 315 315 314 315 317 319 322 319 308 302 313 322 315 311 312 312 309 310 309 305 303 300 302 302 299 301 299 300 307
317 316 316 316 316 314 313 313 312 312 314 314 313 313 313 314 314 314 315 314 314 316 319 321 323 315 301 309 312 315 313 313 314 313 311 312 309 304 301 302 302 299 295 292 299 301 306
318 317 316 316 315 313 312 312 312 312 312 313 313 312 313 313 314 314 313 312 315 318 321 323 311 306 300 316 312 312 314 312 313 312 311 315 306 301 302 296 294 295 291 292 297 299 301
316 316 316 315 315 314 313 313 313 312 311 312 313 312 312 313 313 313 311 313 315 319 320 320 317 304 305 306 313 312 312 314 311 309 307 305 300 296 294 293 289 291 292 294 293 299 300
315 315 315 315 315 314 313 312 312 311 311 311 312 311 311 312 312 311 308 307 303 303 307 303 303 305 309 314 318 311 313 311 311 306 299 301 296 293 295 295 297 296 295 294 298 301 298
316 315 314 314 314 313 312 312 311 311 311 311 310 311 311 311 310 310 304 305 308 305 298 307 309 308 312 314 310 313 313 307 304 299 301 298 294 300 301 300 298 297 295 295 298 301 298
315 315 314 314 313 312 312 311 311 311 311 311 310 310 311 311 309 304 300 306 308 304 298 302 306 307 307 311 308 310 310 306 302 299 298 296 299 304 303 300 299 296 295 295 296 300 298
313 313 313 312 311 311 311 310 310 310 310 310 309 309 310 309 300 299 301 308 305 304 291 296 302 304 308 312 307 315 311 307 302 299 299 297 303 302 300 300 300 294 300 300 299 295 291
311 311 310 310 310 310 310 309 309 310 310 309 309 309 309 308 297 296 303 303 305 305 283 301 302 307 306 305 306 308 311 307 300 301 300 298 299 300 299 299 301 298 301 300 299 293 290
310 310 309 309 309 309 309 309 308 309 308 308 308 308 308 301 296 299 302 302 304 293 284 300 302 300 300 304 305 306 308 308 306 301 300 299 302 301 300 303 302 303 299 296 293 291 286
309 308 308 308 307 307 308 308 308 308 308 308 308 307 305 303 292 297 300 303 291 286 299 300 301 298 297 299 302 302 302 299 297 292 291 297 298 301 303 298 299 297 292 286 285 285 285
307 307 307 307 307 307 308 308 308 307 307 307 307 306 302 303 300 300 302 296 284 293 296 305 303 301 296 299 299 300 298 296 298 296 292 291 290 298 302 299 296 294 293 287 282 282 286
307 306 306 307 305 306 307 307 308 307 307 306 305 295 295 297 302 301 299 288 288 294 303 301 300 297 295 299 298 297 297 297 299 298 294 291 293 302 304 302 301 295 291 294 289 288 286
307 306 306 306 305 306 307 307 308 307 307 306 298 292 296 302 304 302 295 289 294 303 303 301 294 299 294 297 297 293 294 300 300 301 300 296 291 299 302 300 299 297 298 291 288 283 282
307 306 305 305 307 307 306 306 308 307 307 304 293 291 302 304 305 299 289 290 298 303 304 302 298 296 298 298 299 296 298 300 305 301 300 296 294 295 299 296 293 294 292 291 291 289 283
306 306 305 305 306 307 307 307 308 307 304 296 289 284 302 306 296 293 291 297 300 301 304 303 302 299 298 299 297 298 301 303 308 303 298 297 294 290 294 301 303 300 297 293 288 288 288
305 305 305 305 306 307 307 307 307 307 303 291 285 288 302 304 290 291 295 299 301 298 299 300 301 301 301 297 293 300 303 307 307 304 301 301 292 288 291 296 300 299 300 297 294 292 289
305 306 305 305 305 306 307 307 307 307 305 291 287 287 295 299 297 294 292 294 295 303 303 303 301 302 299 296 297 296 299 305 306 305 313 306 295 292 289 292 297 296 298 299 294 289 290
305 305 305 305 305 305 306 306 307 306 306 293 287 286 293 290 293 293 294 296 295 295 301 302 298 300 298 293 295 297 302 303 305 310 302 298 293 296 298 301 300 299 300 298 295 294 292
305 305 305 305 305 304 305 305 306 306 304 291 285 288 293 291 293 293 295 294 296 299 297 298 297 300 298 296 297 299 302 300 300 302 298 297 294 296 297 301 300 299 301 299 299 297 296
305 305 304 305 305 305 305 304 305 306 301 292 294 294 292 292 291 288 290 293 296 296 298 302 302 301 300 303 305 305 305 303 302 301 299 297 295 292 289 297 294 288 295 297 296 298 296
304 304 304 304 305 305 305 304 305 305 302 296 294 292 289 288 291 292 295 296 296 296 295 303 304 300 304 306 306 304 302 302 302 300 301 296 295 293 290 291 284 293 300 300 299 300 301
304 304 304 304 305 305 306 305 304 305 305 295 294 291 290 287 292 294 294 294 296 296 296 301 304 304 303 302 297 294 294 295 298 301 300 300 295 291 289 287 292 297 299 298 296 296 302
303 304 304 304 304 305 303 304 304 305 305 295 292 295 292 289 290 295 293 294 291 291 293 299 303 303 302 297 294 288 287 293 291 294 299 300 298 294 289 287 284 293 303 306 300 291 305
302 303 303 303 303 303 303 304 304 304 305 297 293 297 293 290 295 293 290 290 293 292 291 294 296 297 298 292 290 288 289 295 289 290 291 291 292 290 287 287 292 299 306 305 291 291 305
302 302 302 303 303 303 303 303 304 304 304 299 294 298 294 290 293 296 295 289 291 293 290 293 294 295 291 289 289 289 288 291 290 292 292 290 289 289 289 286 287 305 306 297 300 302 307
301 302 302 302 302 303 302 302 304 304 305 302 293 301 299 292 292 296 297 298 295 296 295 294 292 293 295 290 290 291 288 288 287 285 296 289 294 292 294 292 299 305 304 305 307 306 305
Wind_Speed
17 17 18 19 19 19 19 20 19 21 21 22 23 23 23 22 23 21 21 20 19 18 15 12 9 4 2 2 10 4 7 10 7 6 5 4 3 4 2 3 2 4 5 5 11 8 13
16 18 18 19 20 19 20 20 21 20 21 21 22 23 23 23 22 22 22 20 18 16 14 11 6 1 2 3 5 2 8 7 5 5 5 5 5 4 3 3 4 4 6 9 6 3 4
15 17 18 16 16 18 20 21 22 22 22 22 22 22 23 23 23 23 23 22 19 17 13 8 5 3 1 16 3 2 7 5 5 4 4 5 3 2 4 5 3 4 5 8 2 1 6
11 15 16 17 16 18 20 20 22 23 22 22 23 23 24 24 24 25 25 23 21 16 8 5 6 1 8 4 2 5 3 2 4 5 3 5 3 4 1 3 8 5 5 3 5 4 5
11 12 12 14 15 17 18 19 21 23 23 23 23 24 25 26 26 26 26 26 19 5 2 7 3 2 11 4 3 6 5 5 3 3 5 5 1 2 6 4 6 7 1 2 9 2 3
12 14 13 14 14 14 16 18 19 22 24 24 24 25 26 27 28 27 29 19 4 5 1 3 3 2 5 2 4 6 6 3 1 3 4 3 6 4 4 5 5 3 4 5 4 6 5
12 13 15 16 15 15 16 18 20 21 23 25 25 25 26 28 28 28 15 3 5 4 1 7 6 5 5 7 3 4 6 6 2 4 2 2 4 5 8 6 2 1 1 3 7 5 2
12 13 15 16 17 16 17 18 20 21 22 24 26 26 27 29 30 28 2 4 6 2 9 11 14 10 11 5 5 5 7 6 6 6 2 5 5 9 3 4 4 3 2 9 9 5 6
12 14 14 15 15 15 17 17 18 20 20 21 23 24 26 29 34 4 3 2 5 3 4 9 8 7 7 10 9 8 9 6 5 5 4 7 7 4 4 3 2 4 3 4 7 5 2
12 13 14 14 14 15 17 18 19 19 20 21 22 23 24 31 4 6 6 7 8 3 4 9 5 9 7 8 5 9 9 8 2 10 5 5 6 6 1 5 6 6 8 7 3 3 1
13 14 14 14 15 15 17 18 19 20 20 21 20 21 19 16 6 5 7 12 13 4 3 4 4 2 4 11 3 6 6 5 9 5 7 8 1 2 1 6 5 11 7 6 3 4 3
12 12 13 15 16 17 16 18 20 20 20 21 22 21 19 2 2 10 12 13 3 6 9 6 6 6 6 2 2 3 5 4 5 6 1 8 1 1 5 5 3 4 5 8 5 4 4
10 11 12 14 15 17 17 18 19 20 21 23 24 23 15 3 6 1 6 4 5 4 5 4 1 1 5 7 4 4 8 5 7 4 3 7 6 3 4 5 3 6 8 3 4 6 5
9 11 13 13 15 16 17 17 19 20 22 24 25 28 6 7 7 5 3 6 4 6 5 5 5 3 5 6 7 6 6 6 2 5 4 6 8 5 4 7 6 4 9 8 5 4 5
10 13 14 14 15 15 16 17 19 20 22 23 25 4 4 5 11 3 5 3 9 6 3 6 8 3 4 1 4 6 9 10 11 10 10 6 7 3 4 3 8 3 3 5 8 3 3
12 12 14 13 14 15 16 17 17 20 22 23 6 5 5 1 11 4 5 6 5 4 4 5 2 5 3 4 4 7 8 6 7 12 7 7 3 5 5 1 2 6 6 4 4 4 4
12 12 14 13 13 14 15 17 17 19 22 18 2 5 4 7 3 6 5 8 5 7 3 2 3 3 1 2 2 1 3 5 6 3 7 6 5 5 2 1 3 2 2 7 7 5 6
12 11 13 14 13 13 12 14 14 16 20 8 3 3 3 3 5 1 3 6 3 4 1 6 4 9 7 5 2 2 2 4 3 7 11 6 6 4 7 5 3 4 4 5 7 3 2
14 12 12 12 12 13 10 12 11 13 10 3 3 5 5 3 4 2 5 4 4 4 6 5 4 6 4 5 2 3 1 4 2 4 8 8 1 1 7 7 5 7 4 4 6 4 5
14 15 12 12 12 11 9 10 9 10 8 4 2 3 5 3 1 6 2 4 4 6 9 6 7 2 3 3 2 0 2 4 3 4 9 8 4 7 10 7 5 5 4 2 5 4 5
14 13 12 10 10 11 9 10 10 9 8 3 1 4 1 3 1 2 3 2 7 5 4 2 2 6 6 4 3 2 4 4 6 4 4 5 5 4 4 3 4 2 3 3 5 4 6
11 10 10 11 9 10 8 9 8 8 6 2 1 1 5 3 3 2 6 6 4 3 4 6 2 6 1 6 7 5 3 0 2 3 3 3 2 3 3 3 3 3 3 5 7 2 5
10 9 10 10 10 10 6 8 8 7 4 1 2 3 2 4 4 1 2 4 1 5 5 1 5 5 4 5 4 2 4 2 2 5 3 4 6 4 2 2 2 3 6 6 3 1 2
11 12 11 12 12 11 7 6 6 6 2 1 2 1 1 4 2 1 2 3 3 4 4 4 4 5 2 3 1 5 6 4 5 6 4 5 5 4 3 3 1 7 3 3 9 2 6
13 12 10 12 11 11 7 6 4 6 3 2 2 1 1 3 3 3 6 3 6 6 2 1 2 2 2 6 5 5 6 3 2 3 5 5 6 4 5 4 4 5 3 6 5 1 2
12 9 9 11 7 8 1 3 5 6 4 2 3 3 1 0 3 5 3 2 1 3 6 4 5 5 7 4 4 4 5 5 4 3 6 6 5 6 4 6 8 8 4 4 4 3 4
11 9 7 7 5 4 4 6 7 6 5 2 3 4 1 2 4 2 2 2 3 2 1 4 7 7 4 3 3 3 3 2 4 6 4 3 3 6 3 3 6 6 5 4 5 9 6
8 8 7 7 6 6 5 6 6 6 5 1 4 4 4 2 5 3 2 2 4 2 2 4 3 4 4 4 3 4 3 3 2 3 4 6 6 4 3 2 7 7 4 9 8 1 5
8 8 6 6 7 7 5 6 7 6 6 2 3 1 3 3 5 2 6 12 8 7 3 2 3 0 2 5 1 2 2 2 3 3 4 2 6 5 8 8 4 1 4 2 4 6 4
Wind_Direction
17 15 12 8 7 5 3 357 355 354 351 348 347 347 343 340 338 333 329 326 326 323 317 310 301 303 333 14 253 291 83 128 118 120 169 159 154 164 212 202 233 198 268 260 252 172 214
12 12 10 7 3 1 0 355 353 351 348 345 344 342 340 338 335 330 326 323 322 316 309 298 280 196 126 270 247 197 129 124 138 149 182 174 202 193 238 220 163 222 244 279 294 264 172
8 7 4 358 356 359 357 354 350 347 345 343 341 339 338 335 332 327 323 320 319 312 304 277 223 213 212 236 5 159 157 169 168 178 193 210 161 143 163 301 200 257 323 339 329 54 86
1 1 358 355 355 358 355 352 348 345 342 340 339 338 336 335 331 325 321 319 314 306 292 238 181 191 248 248 241 146 160 289 205 221 248 251 170 209 194 314 4 27 47 43 286 5 176
350 352 354 352 353 357 348 342 343 344 343 340 339 336 335 333 330 325 321 316 310 285 203 154 153 156 267 324 208 214 165 214 194 182 227 282 1 91 21 67 7 10 316 341 325 360 112
351 350 345 346 345 341 339 339 342 342 342 340 338 336 335 332 328 326 324 310 261 116 170 206 253 5 280 271 227 185 197 180 301 331 2 133 53 65 33 65 217 235 343 330 285 302 12
341 342 340 336 338 338 337 339 339 340 339 339 338 335 334 331 327 326 337 9 19 6 225 209 198 251 282 301 296 203 166 119 93 12 204 352 81 226 228 199 163 112 183 274 268 257 245
332 331 333 334 334 336 335 335 335 336 337 337 336 335 333 330 323 323 292 61 96 269 292 236 243 254 251 55 311 294 105 143 133 208 137 17 246 234 217 185 216 215 307 295 290 272 157
336 332 329 331 332 331 332 332 331 332 333 333 334 334 334 331 320 356 296 239 337 321 254 281 209 216 212 148 204 257 145 166 154 182 174 174 231 108 174 261 234 250 196 241 233 342 131
327 327 328 331 330 329 330 331 330 330 330 330 330 332 336 336 36 330 286 320 323 263 21 273 232 250 171 142 248 214 176 145 129 189 199 234 271 235 268 263 163 267 212 211 158 95 216
326 329 330 330 331 331 331 329 328 329 327 324 326 328 332 333 288 313 289 334 322 59 329 233 196 145 196 152 180 224 166 67 165 194 119 239 198 77 279 239 157 226 156 178 124 107 78
326 330 332 333 333 333 331 327 328 327 324 321 320 322 330 14 280 246 318 308 43 52 249 303 151 154 121 162 210 89 130 81 155 175 195 233 262 220 224 283 245 131 90 49 55 92 52
329 331 332 331 331 330 329 326 325 323 322 319 315 312 306 262 236 166 319 30 55 174 316 335 345 164 160 163 223 167 148 152 160 138 283 323 270 247 199 284 10 72 60 358 354 12 212
317 322 321 323 328 327 328 325 320 320 322 318 314 310 252 205 229 263 356 56 184 233 260 310 346 275 194 139 242 174 130 197 275 118 128 188 314 166 173 181 204 198 149 152 206 187 242
305 317 322 318 325 326 328 325 323 322 322 320 320 316 276 249 193 124 89 128 204 210 313 349 327 188 195 285 163 142 184 200 195 171 179 153 262 266 219 190 141 197 173 185 102 34 74
299 308 317 317 322 324 326 327 329 328 324 324 315 334 264 161 156 103 87 231 238 236 9 1 293 6 105 349 89 147 173 212 212 187 150 211 306 218 278 113 117 163 156 90 20 146 216
299 304 314 314 315 318 324 328 330 333 329 328 8 348 275 151 163 53 170 230 275 271 278 282 254 350 348 139 151 175 192 278 205 134 166 131 129 270 37 359 177 5 52 50 106 107 157
301 299 307 314 316 319 319 325 331 339 339 33 346 341 332 124 76 77 185 202 268 281 281 280 237 207 202 202 196 149 206 227 307 157 152 185 154 229 227 335 12 104 112 126 115 203 107
306 294 304 309 313 322 319 336 337 343 30 1 345 271 308 112 160 238 274 262 233 240 235 241 275 193 191 166 157 243 243 317 329 111 159 176 98 70 5 345 355 74 50 91 87 73 188
294 293 295 299 312 323 324 333 333 336 358 86 8 329 312 48 150 153 196 267 258 267 240 219 246 220 123 113 16 183 306 43 2 59 71 85 110 155 188 194 153 93 117 177 110 112 179
289 284 288 292 306 315 320 330 335 334 348 94 102 262 223 284 326 161 178 293 293 294 289 324 248 206 161 128 106 32 348 349 37 351 53 90 106 99 51 49 66 87 102 169 220 189 157
278 282 303 297 295 306 306 327 330 342 6 89 166 1 342 278 288 244 174 223 238 287 230 290 356 0 91 144 163 180 165 317 206 352 70 21 135 77 94 72 45 234 178 233 240 234 259
293 291 301 304 295 303 287 313 328 340 44 359 302 311 113 289 324 104 157 284 290 316 276 233 287 117 113 184 150 86 148 103 164 141 109 82 122 88 105 19 217 341 214 224 223 196 242
293 294 296 294 297 292 266 283 318 321 120 168 272 65 69 274 266 188 333 288 303 279 261 320 68 109 245 1 42 60 47 82 66 46 122 117 89 84 156 57 175 240 291 201 125 39 342
296 289 293 294 285 293 280 266 294 305 276 144 251 129 192 271 295 307 317 289 311 302 257 198 51 141 125 52 60 51 355 26 316 186 113 115 113 104 138 183 295 310 211 158 176 199 230
296 298 295 298 288 296 284 289 285 295 298 125 229 186 240 233 224 294 297 332 14 331 340 12 351 323 66 83 82 136 184 197 208 154 52 58 68 120 142 163 206 229 227 134 99 299 223
312 295 306 310 298 301 315 303 284 291 293 143 266 202 119 237 258 340 40 290 329 53 248 321 338 4 35 85 95 143 206 223 179 167 173 86 36 166 148 206 287 244 200 117 119 239 179
295 298 285 290 293 286 296 309 309 304 300 45 259 201 172 240 277 268 2 22 338 48 85 298 25 333 42 74 122 194 147 235 126 218 175 161 144 196 91 117 280 203 96 159 203 132 169
311 302 250 270 297 295 276 295 308 316 311 71 281 221 149 199 250 268 248 243 199 231 158 12 169 329 175 94 150 115 112 52 144 233 341 248 177 188 172 211 245 301 179 107 127 146 190